Theta_e
320 320 319 317 309 309 310 311 312 312 313 314 315 315 314 313 314 313 312 312 311 311 309 308 308 306 319 325 323 326 324 312 316 329 330 330 336 347 351 353 352 358 358 354 352 355 354
319 319 319 319 309 309 310 311 312 312 312 312 313 313 314 314 313 312 311 310 309 307 307 306 307 308 321 325 319 327 325 316 317 328 329 328 334 342 352 354 353 355 357 357 356 357 354
318 318 319 319 309 309 309 311 311 312 312 312 312 311 312 313 312 311 308 305 305 307 309 309 308 317 322 323 320 327 322 318 319 326 327 326 327 342 350 351 347 356 359 356 356 357 356
317 318 319 319 315 309 309 310 311 312 312 312 311 311 311 312 312 312 311 309 309 314 307 309 310 321 324 317 323 325 324 324 324 325 324 324 327 336 348 345 349 360 358 364 357 359 356
318 318 318 319 317 309 309 309 310 311 311 311 310 310 310 310 312 312 312 311 314 312 307 310 322 324 321 315 324 323 324 326 324 325 324 325 328 342 348 349 353 361 368 363 365 356 356
318 319 319 319 318 312 308 309 310 310 311 311 311 310 310 310 310 311 311 314 317 316 318 321 322 323 322 322 324 320 319 323 325 323 323 324 329 347 349 349 350 360 364 364 365 354 354
318 319 319 319 320 319 308 309 310 310 310 311 311 310 310 310 310 311 316 322 327 329 326 326 322 323 322 322 323 322 321 321 322 323 323 322 328 345 348 347 344 358 365 365 361 351 353
317 317 317 317 319 318 309 310 310 309 310 310 311 310 310 311 311 311 312 323 321 321 325 321 321 322 322 321 325 323 322 322 320 322 324 323 326 333 345 348 341 344 359 362 358 351 352
317 317 317 317 315 311 309 310 310 309 309 310 310 310 310 312 310 312 320 321 320 320 325 320 320 322 322 322 323 324 322 322 322 321 323 326 324 327 344 348 342 344 358 358 358 356 353
316 316 316 317 314 310 309 309 310 309 309 310 310 310 311 313 314 319 320 321 320 320 327 322 322 324 323 323 323 324 321 323 321 321 323 325 326 325 342 344 342 342 353 356 352 358 357
317 316 316 317 318 320 315 310 310 310 309 309 310 311 313 313 318 319 321 320 320 322 328 323 321 322 324 325 324 323 322 323 323 321 322 323 325 326 334 340 340 338 339 356 356 353 347
316 315 315 316 318 319 321 316 311 310 309 310 311 313 314 313 315 319 320 320 321 324 329 324 323 323 324 323 325 324 322 324 326 323 322 325 326 328 332 333 337 337 342 344 346 347 349
315 315 315 315 317 319 320 319 313 309 310 311 315 311 313 317 321 320 320 323 326 326 324 323 323 322 323 322 324 325 325 325 327 326 325 324 327 328 331 333 334 341 346 350 350 347 346
314 314 314 315 316 320 317 316 312 309 311 315 313 312 313 319 319 319 323 328 326 324 325 323 322 323 323 323 324 325 325 326 327 327 326 323 328 328 330 334 334 338 341 349 355 351 347
314 314 315 316 314 312 313 313 309 310 313 318 315 319 321 321 320 320 326 329 326 325 324 323 323 323 323 322 324 324 325 325 326 328 330 326 327 327 327 329 332 334 339 339 345 348 352
313 314 315 310 309 312 312 310 309 311 315 318 323 322 322 322 323 323 327 322 324 324 323 323 325 324 325 324 322 323 325 325 326 326 328 331 329 327 326 326 327 330 332 336 338 344 350
313 314 315 308 309 311 310 309 310 313 317 317 322 325 321 322 324 328 325 324 323 323 324 324 323 323 324 324 324 324 327 326 325 326 326 329 329 329 327 326 327 327 329 330 334 335 337
312 313 314 307 309 311 310 309 310 314 318 320 325 327 320 322 327 325 324 323 318 322 322 323 323 323 324 325 324 323 325 328 326 325 326 326 328 331 330 327 325 327 326 328 330 334 333
312 312 314 307 309 310 310 310 311 314 315 321 328 324 321 322 327 324 324 323 323 323 322 323 323 323 323 325 325 324 324 326 326 325 328 328 326 330 330 329 327 327 329 328 327 328 331
312 312 313 308 308 310 311 310 311 314 315 318 326 325 323 322 321 324 325 324 323 320 322 322 323 322 323 324 325 326 325 325 325 325 330 328 327 328 331 332 330 330 327 328 329 331 330
311 311 313 311 307 309 311 311 311 315 316 319 324 324 324 324 321 321 322 320 321 322 320 320 323 321 323 325 325 326 324 324 324 328 326 325 327 327 329 329 329 330 328 327 330 330 331
311 312 312 313 308 308 311 311 311 316 318 324 328 323 321 321 319 321 315 320 319 319 318 319 318 317 321 325 327 327 325 325 326 327 326 326 327 332 332 327 328 328 330 331 329 329 329
311 311 311 313 311 307 310 311 311 315 321 326 325 323 324 317 321 321 321 320 319 317 318 317 317 316 319 324 324 324 323 324 326 327 328 327 327 328 330 325 327 328 328 328 328 328 329
311 311 311 312 313 307 308 311 311 312 316 324 325 327 323 321 321 319 318 318 318 320 320 318 316 316 324 323 322 323 324 324 324 324 325 327 328 328 330 327 331 329 329 330 331 331 333
311 311 311 311 313 310 307 309 311 311 316 321 326 327 324 322 320 319 319 319 320 321 320 319 319 319 320 321 323 326 325 325 325 325 324 325 329 330 331 327 331 330 330 331 331 336 343
311 311 311 311 313 312 307 308 310 311 314 321 326 325 327 325 321 320 320 320 322 322 322 320 320 320 321 323 324 331 332 331 331 329 324 324 326 330 331 334 330 335 331 328 329 331 335
311 311 312 312 312 313 308 307 309 310 311 315 325 325 327 324 323 321 324 321 321 321 321 322 321 320 320 325 325 325 327 330 334 329 331 329 328 327 326 330 331 331 328 326 332 336 334
312 311 312 313 312 313 311 307 308 309 310 315 326 324 328 325 323 321 320 321 322 322 323 325 322 323 320 321 323 325 325 328 327 325 331 327 330 331 328 333 336 329 330 335 335 332 333
311 311 311 312 313 312 312 307 308 309 310 313 325 322 324 327 324 320 320 320 320 319 321 322 322 324 321 323 323 324 326 324 326 326 326 325 329 333 331 334 331 330 331 332 331 331 333
Wind_Speed
9 11 13 16 14 13 12 11 13 14 13 13 13 12 12 11 10 10 10 10 10 10 9 8 6 4 5 8 6 2 5 20 18 21 21 16 14 14 8 6 5 4 6 12 7 4 9
13 11 13 15 14 13 12 13 14 14 15 15 15 14 12 11 10 10 9 9 9 8 7 6 4 2 9 12 4 1 9 17 19 22 19 18 11 12 1 15 2 7 9 12 3 7 6
14 14 13 14 13 13 12 12 13 13 14 15 16 16 14 12 10 10 9 7 6 6 6 5 3 5 11 5 4 3 12 18 19 20 16 17 13 10 8 10 7 7 12 11 3 1 4
15 14 13 14 13 12 11 10 11 12 14 15 17 17 17 14 12 11 10 7 5 6 3 2 5 7 9 2 1 7 13 15 15 17 16 15 8 16 15 6 5 9 9 9 7 4 3
16 14 13 13 13 11 11 10 11 12 13 15 17 17 17 16 13 12 12 5 3 3 3 5 4 10 5 5 10 9 11 14 13 10 9 7 12 15 12 12 8 2 5 11 8 2 2
16 15 14 13 13 11 11 11 11 11 13 14 16 18 18 19 15 12 4 2 3 1 2 6 11 8 6 12 12 11 11 13 14 11 10 12 9 13 13 12 9 5 10 14 10 4 4
15 15 14 14 13 12 12 13 11 11 12 14 16 19 20 20 16 11 3 3 6 7 13 10 6 5 5 7 12 11 12 15 11 11 14 16 13 16 16 15 5 21 13 16 11 9 4
18 18 17 16 14 12 14 14 13 11 12 14 17 19 21 20 14 10 4 7 10 7 4 2 4 3 2 14 12 13 15 12 12 14 17 11 18 17 7 12 7 8 18 18 10 9 3
19 18 18 16 13 13 14 14 14 12 12 15 18 20 22 18 11 4 10 10 7 8 8 7 5 7 10 10 11 15 17 13 12 16 17 14 14 18 9 10 11 7 9 12 12 8 6
22 21 19 17 14 14 14 15 15 14 14 16 19 22 24 12 4 4 8 0 6 5 6 9 8 5 6 9 8 17 17 8 10 14 12 15 12 16 7 14 10 6 21 18 15 18 7
21 21 20 19 17 14 14 15 17 16 16 18 22 26 18 7 10 10 4 6 8 4 3 3 6 4 9 9 15 12 16 8 11 11 9 13 9 9 13 15 11 9 3 28 29 9 15
20 21 20 20 19 17 15 15 18 18 19 22 28 20 2 2 8 9 5 9 6 8 3 5 5 6 11 10 7 11 13 10 9 10 11 13 6 10 17 8 4 5 2 5 7 10 7
20 21 21 22 21 17 15 16 19 20 21 26 19 4 10 3 2 2 8 8 8 3 3 5 4 11 13 3 8 12 14 15 10 11 11 13 10 15 14 12 10 9 13 4 4 8 3
21 22 23 22 20 17 16 17 20 21 24 24 3 4 3 7 6 7 11 11 5 6 10 3 4 5 6 6 5 14 12 14 17 13 10 13 13 15 11 14 12 14 13 7 6 5 5
21 22 22 21 19 19 19 20 21 22 26 13 2 3 7 2 8 8 8 10 5 3 2 2 8 10 8 6 6 7 11 14 10 13 14 12 15 17 13 15 15 15 15 13 8 3 9
20 21 21 20 19 20 20 21 22 24 24 6 7 8 5 4 7 10 10 8 6 4 3 9 2 2 4 4 8 6 9 4 0 6 11 9 9 12 10 10 16 17 11 15 13 13 16
20 20 19 20 19 20 21 22 23 26 20 5 9 3 4 7 10 9 3 7 6 5 8 10 3 2 1 1 3 5 11 3 1 1 7 14 11 8 9 14 14 12 11 11 16 15 15
19 20 19 19 19 20 21 21 24 27 18 5 13 1 3 5 7 3 6 5 6 6 3 1 4 9 6 6 9 3 3 8 7 11 8 13 9 11 15 13 17 18 19 17 11 14 12
20 19 19 17 18 20 21 21 23 26 19 10 6 5 4 10 5 6 3 6 4 0 4 4 2 5 2 4 6 5 1 6 4 10 5 8 10 10 12 8 5 9 15 15 18 14 14
23 19 19 17 17 19 20 21 22 24 17 5 5 5 5 3 3 6 5 2 8 1 4 2 4 4 5 4 4 5 8 7 4 6 9 6 14 13 4 9 11 17 18 14 16 12 14
22 19 18 18 16 18 20 20 21 23 16 3 7 3 5 2 5 6 4 2 3 1 1 2 6 4 5 6 2 3 4 5 9 8 7 9 16 9 1 7 11 10 13 15 14 17 15
20 20 18 18 16 17 18 19 21 22 15 6 5 2 4 4 2 6 6 3 5 2 3 3 5 6 6 8 4 6 7 7 3 12 12 12 11 3 12 8 10 13 8 9 8 13 14
19 19 17 16 16 14 16 17 19 20 14 4 2 3 7 7 5 7 8 4 6 3 3 4 6 8 9 4 5 8 7 8 7 5 10 10 10 9 13 11 10 13 14 10 13 14 14
17 17 18 16 15 13 14 15 16 18 14 8 5 9 7 4 4 6 3 1 1 5 5 3 2 7 7 4 7 10 12 6 6 5 9 4 11 9 13 7 10 4 7 11 4 11 8
16 16 17 16 14 14 12 13 14 15 14 9 5 5 6 4 6 5 3 1 2 7 7 4 5 5 4 6 10 6 7 8 10 7 8 3 8 4 10 12 8 13 4 1 3 1 17
17 14 14 16 14 14 10 11 12 12 13 7 3 4 7 7 4 8 3 1 9 2 7 3 4 4 5 9 5 5 5 8 3 13 9 8 5 8 4 7 16 7 12 11 6 9 8
17 15 13 14 14 13 10 9 10 11 11 10 5 4 6 9 8 3 3 7 4 5 7 3 1 6 7 10 6 7 2 5 8 6 3 5 9 12 5 4 2 8 11 11 14 4 9
17 16 15 14 14 11 10 9 9 9 10 11 4 3 5 7 7 3 1 1 2 5 7 7 7 7 6 4 5 4 4 3 7 9 10 5 6 6 5 4 8 11 4 5 6 5 8
18 18 17 14 12 11 10 7 9 7 7 8 7 1 4 8 7 2 4 3 2 4 6 3 6 5 5 4 2 5 1 5 7 8 4 6 6 3 5 2 4 8 8 6 5 2 7
Wind_Direction
5 2 1 359 8 7 8 7 5 1 355 349 343 341 338 334 327 320 314 308 301 294 295 292 293 293 297 222 256 86 306 172 179 189 210 207 213 220 224 248 215 148 129 123 135 267 175
16 11 7 2 7 8 8 10 9 13 8 3 356 349 342 336 332 328 319 303 294 294 286 284 275 240 250 248 17 344 162 168 185 197 201 208 218 236 321 262 184 97 147 117 75 109 175
18 13 9 5 7 9 8 8 10 12 12 7 3 359 353 344 340 336 337 331 317 298 282 265 217 273 261 297 341 172 172 182 185 201 203 212 232 223 249 227 92 72 151 145 88 54 79
15 12 9 5 4 10 7 3 2 5 10 9 6 5 2 356 344 339 336 333 323 324 318 203 183 253 276 86 260 175 174 186 186 202 218 208 234 254 258 148 97 170 151 165 159 209 79
13 12 9 6 1 7 4 358 355 356 2 4 4 3 1 353 344 340 325 311 311 322 116 134 247 229 185 157 193 170 181 183 177 194 221 192 242 237 216 238 156 271 180 182 139 127 111
14 14 10 4 0 4 3 359 351 348 353 354 354 354 353 347 335 338 350 259 284 162 236 242 264 252 214 198 141 164 167 178 188 177 191 215 222 217 237 219 223 130 256 164 136 131 88
13 9 6 360 358 0 1 358 351 344 343 344 344 347 346 342 331 329 330 256 205 202 218 297 139 303 127 115 161 178 173 175 185 204 209 203 214 213 223 228 304 143 213 120 93 132 115
10 8 9 4 359 3 358 355 351 341 336 335 336 338 339 337 325 308 257 269 34 349 271 155 232 247 317 171 176 168 174 188 199 207 226 184 224 221 175 298 268 293 107 104 89 174 114
11 7 8 4 3 358 356 354 349 342 332 328 330 329 332 329 315 251 243 312 326 324 251 108 176 198 177 211 192 168 199 219 204 215 210 224 218 234 173 216 252 213 137 140 128 192 138
5 5 2 360 359 355 353 351 346 339 330 326 324 323 326 314 275 212 241 77 308 313 261 133 159 117 177 232 206 175 208 214 207 222 203 246 249 206 186 238 234 250 121 144 162 174 158
359 358 358 356 354 351 350 346 343 338 331 325 323 320 314 239 314 241 35 317 313 241 224 84 108 93 160 224 120 182 200 213 243 214 219 215 229 222 211 225 212 87 138 141 206 179 141
357 355 358 355 353 351 348 340 342 339 334 330 325 318 284 209 236 268 296 310 266 235 95 111 144 191 187 215 182 140 195 251 301 230 217 276 241 204 226 207 203 117 166 201 186 244 221
356 356 357 352 349 350 348 339 341 340 337 334 329 339 175 227 44 282 295 268 232 300 201 124 165 181 223 146 152 173 192 206 206 202 201 223 212 221 243 166 171 196 187 189 248 216 235
355 356 358 354 353 354 350 343 342 342 338 338 348 123 224 230 281 290 278 245 293 27 20 126 232 210 209 179 141 185 189 212 233 241 193 204 189 207 209 232 171 210 231 193 207 257 213
354 357 0 359 359 358 353 347 345 344 339 341 173 192 208 197 257 270 267 258 50 357 348 197 203 209 148 185 288 239 218 223 180 248 274 190 245 173 192 231 231 191 216 229 213 248 293
356 359 0 1 1 358 353 350 348 345 340 325 257 192 80 245 267 266 256 29 98 37 250 244 350 251 12 149 215 216 193 175 79 205 311 310 201 157 201 227 235 264 212 224 222 243 238
354 359 358 359 360 358 354 353 351 347 342 299 248 198 83 266 267 250 75 71 116 64 322 320 335 207 79 309 310 287 333 18 344 141 273 276 266 153 196 203 219 214 241 248 259 234 264
355 354 353 359 358 359 356 355 354 351 347 274 275 166 145 275 269 315 97 62 293 104 166 73 308 335 336 11 269 280 210 112 322 288 228 245 287 206 211 207 223 228 209 238 235 232 261
353 352 349 355 355 359 357 355 356 353 351 314 266 107 215 258 283 113 158 113 358 350 28 9 67 346 340 310 281 257 232 66 272 256 346 333 235 254 230 160 230 261 243 223 238 255 240
351 350 346 349 352 358 357 355 355 352 347 321 277 203 144 212 342 316 189 92 138 53 90 330 356 280 274 251 172 304 243 166 232 262 7 307 276 269 353 6 324 194 235 235 253 247 232
349 348 343 344 350 355 356 354 354 352 343 301 248 27 6 75 103 36 337 341 305 77 159 272 185 304 334 296 250 273 252 215 208 134 232 243 259 286 198 240 284 285 221 209 232 256 267
347 346 343 341 346 351 355 353 354 354 339 260 307 290 192 85 111 263 136 41 331 69 326 28 294 338 290 279 72 256 337 296 303 174 231 234 264 48 303 213 255 280 215 267 255 235 251
345 342 342 339 340 346 352 352 355 360 354 303 4 279 284 122 205 260 67 24 23 326 129 297 313 290 251 26 360 322 284 270 181 264 281 243 259 249 247 267 289 231 249 249 236 252 251
341 337 340 336 335 339 346 349 352 1 3 312 6 298 263 162 271 38 59 70 5 27 323 354 313 248 43 325 267 253 272 208 230 237 250 253 255 271 260 298 230 288 39 350 338 312 348
331 335 333 334 331 332 338 346 345 355 359 327 347 290 287 280 72 161 157 21 211 169 248 331 61 348 284 255 254 232 231 213 223 205 235 191 254 298 278 250 161 246 93 313 277 88 13
322 325 325 330 327 326 326 339 337 346 353 325 348 304 280 296 113 58 232 313 295 275 188 168 138 317 271 251 230 258 205 289 68 336 224 229 198 259 247 295 274 129 319 333 288 230 62
318 315 316 316 323 316 315 328 329 337 345 335 314 347 272 273 95 290 351 2 333 275 280 140 18 255 232 264 265 269 310 87 257 206 110 343 277 234 200 214 305 132 204 271 254 45 9
308 306 303 303 310 301 308 316 321 327 335 340 317 327 290 287 106 274 119 292 215 257 305 66 266 192 245 285 306 302 311 342 298 312 151 151 227 293 274 152 247 357 296 351 1 324 18
300 297 291 287 294 293 297 296 309 311 318 328 261 330 286 267 67 88 83 88 15 331 309 284 329 302 348 303 348 317 231 260 255 273 128 273 351 191 125 294 71 53 46 29 345 315 10